Regional Weather Roundup
Issued by NWS

Home | Current Version | Previous Version | Text Only | Print | Product List | Glossary On
Versions: 1 2 3 4 5 6 7 8 9 10 11 12 13 14 15 16 17 18 19 20 21 22 23 24 25 26 27 28 29 30 31 32 33 34 35 36 37 38 39 40 41 42 43 44
519
ASUS44 KJAN 052003
RWRMS

MISSISSIPPI HOURLY WEATHER ROUNDUP
NATIONAL WEATHER SERVICE JACKSON MS
200 PM CST THU MAR 05 2015

NOTE: "FAIR: INDICATES FEW OR NO CLOUDS BELOW 12,000 FEET WITH NO
SIGNIFICANT WEATHER AND/OR OBSTRUCTIONS TO VISIBILITY.

MSZ001>002-007>008-010>013-018>021-025>028-034>036-052100-
NORTHWEST MISSISSIPPI

CITY           SKY/WX    TMP DP  RH WIND       PRES   REMARKS
CLARKSDALE     FAIR      28  18  64 CALM      30.52F
CLEVELAND      FAIR      31  20  66 N20G25    30.50F WCI  18
GREENWOOD      PTSUNNY   32  19  58 N14G21    30.47F WCI  22
GREENVILLE     MOSUNNY   32  18  56 MISG      30.50F
OLIVE BRANCH   MOSUNNY   28  19  69 N17G25    30.47  WCI  16
OXFORD         FAIR      28  16  59 N17G28    30.47F WCI  16
TUNICA         CLEAR     28  19  69 N10       30.53F WCI  19
$$

MSZ003>006-009-014>017-022>024-029>033-037>039-052100-
NORTHEAST MISSISSIPPI

CITY           SKY/WX    TMP DP  RH WIND       PRES   REMARKS
COLUMBUS AFB   CLOUDY    28  23  80 N17       30.42R WCI  16
CORINTH        FAIR      30  16  55 N14G21    30.45S WCI  20
GOLDN TRIANGLE CLOUDY   N/A N/A N/A N16G23    30.40R
STARKVILLE     MOCLDY    28  27  93 CALM      30.42S
TUPELO         CLOUDY    29  19  66 N15G24    30.44R WCI  18
$$

MSZ040-058-052100-
CENTRAL MISSISSIPPI

CITY           SKY/WX    TMP DP  RH WIND       PRES   REMARKS
JACKSON INTL   CLOUDY    30  26  85 N16       30.41S WCI  19
JACKSON HAWKNS CLOUDY    29  23  78 N12G24    30.41S WCI  19
MERIDIAN KEY   MIX PCPN  31  27  85 N21G29    30.35R WCI  18
MERIDIAN NAS   SLEET     30  26  85 N15G28    30.35F WCI  19
VICKSBURG      PTSUNNY   31  20  63 N26G35    30.49S WCI  17
$$

MSZ059>079-052100-
SOUTH MISSISSIPPI

CITY           SKY/WX    TMP DP  RH WIND       PRES   REMARKS
BROOKHAVEN     LGT RAIN  30  30 100 CALM      30.37F
HATTIESBURG    LGT RAIN  36  31  82 N13G28    30.32S WCI  27
MCCOMB         MIX PCPN  30  26  85 N23G29    30.33F WCI  17
NATCHEZ        CLOUDY    28  23  80 N14G26    30.43F WCI  17
PINE BELT      CLOUDY    34  28  80 N18G30    30.33R WCI  23
$$

MSZ080>082-052100-
COASTAL MISSISSIPPI

CITY           SKY/WX    TMP DP  RH WIND       PRES   REMARKS
BAY ST LOUIS   CLOUDY    41  32  70 N23G31    30.23F
BILOXI         CLOUDY    45  38  77 N16G28    30.19F
PASCAGOULA     CLOUDY    46  38  73 N20G31    30.18R
GULFPORT       CLOUDY    44  36  73 N21G33    30.20F
$$



USA.gov is the U.S. government's official web portal to all federal, state and local government web resources and services.